Time,TemperatureF,DewpointF,PressureIn,WindDirection,WindDirectionDegrees,WindSpeedMPH,WindSpeedGustMPH,Humidity,HourlyPrecipIn,Conditions,Clouds,dailyrainin,SoftwareType,DateUTC
2013-10-21 00:01:00,52.9,10.6,29.23,SSE,154,0.0,0.0,18,0.00,,---,0.00,VWS V14.01,2013-10-21 07:01:00,
2013-10-21 00:06:00,52.7,10.4,29.23,SSE,154,0.0,0.0,18,0.00,,---,0.00,VWS V14.01,2013-10-21 07:06:00,
2013-10-21 00:11:00,52.9,10.6,29.23,SSE,154,0.0,0.0,18,0.00,,---,0.00,VWS V14.01,2013-10-21 07:11:00,
2013-10-21 00:16:00,53.1,10.7,29.23,SSE,154,0.0,0.0,18,0.00,,---,0.00,VWS V14.01,2013-10-21 07:16:00,
2013-10-21 00:21:00,52.9,10.6,29.23,SE,136,0.0,0.0,18,0.00,,---,0.00,VWS V14.01,2013-10-21 07:21:00,
2013-10-21 00:26:00,52.3,10.1,29.23,SE,136,0.0,0.0,18,0.00,,---,0.00,VWS V14.01,2013-10-21 07:26:00,
2013-10-21 00:31:00,52.2,10.0,29.23,SE,136,0.0,0.0,18,0.00,,---,0.00,VWS V14.01,2013-10-21 07:31:00,
2013-10-21 00:36:00,51.8,9.7,29.23,SE,136,0.0,0.0,18,0.00,,---,0.00,VWS V14.01,2013-10-21 07:36:00,
2013-10-21 00:41:00,51.4,9.4,29.23,SE,136,0.0,0.0,18,0.00,,---,0.00,VWS V14.01,2013-10-21 07:41:00,
2013-10-21 00:46:00,50.7,10.0,29.23,SE,136,0.0,0.0,19,0.00,,---,0.00,VWS V14.01,2013-10-21 07:46:00,
2013-10-21 00:51:00,50.7,10.0,29.23,SE,136,0.0,0.0,19,0.00,,---,0.00,VWS V14.01,2013-10-21 07:51:00,
2013-10-21 00:56:00,51.1,9.1,29.23,SE,136,0.0,0.0,18,0.00,,---,0.00,VWS V14.01,2013-10-21 07:56:00,
2013-10-21 01:01:00,52.2,10.0,29.23,SE,136,0.0,0.0,18,0.00,,---,0.00,VWS V14.01,2013-10-21 08:01:00,
2013-10-21 01:06:00,51.8,9.7,29.23,SE,136,0.0,0.0,18,0.00,,---,0.00,VWS V14.01,2013-10-21 08:06:00,
2013-10-21 01:11:00,51.1,9.1,29.23,SE,136,0.0,0.0,18,0.00,,---,0.00,VWS V14.01,2013-10-21 08:11:00,
2013-10-21 01:16:00,50.4,9.7,29.23,SE,136,0.0,0.0,19,0.00,,---,0.00,VWS V14.01,2013-10-21 08:16:00,
2013-10-21 01:21:00,50.0,9.4,29.23,SE,136,0.0,0.0,19,0.00,,---,0.00,VWS V14.01,2013-10-21 08:21:00,
2013-10-21 01:26:00,49.1,8.6,29.23,SE,136,0.0,0.0,19,0.00,,---,0.00,VWS V14.01,2013-10-21 08:26:00,
2013-10-21 01:31:00,48.4,8.0,29.23,SE,136,0.0,0.0,19,0.00,,---,0.00,VWS V14.01,2013-10-21 08:31:00,
2013-10-21 01:36:00,48.6,8.2,29.23,SE,136,0.0,0.0,19,0.00,,---,0.00,VWS V14.01,2013-10-21 08:36:00,
2013-10-21 01:41:00,50.4,9.7,29.23,SE,136,0.0,0.0,19,0.00,,---,0.00,VWS V14.01,2013-10-21 08:41:00,
2013-10-21 01:46:00,50.5,9.8,29.23,SE,136,0.0,0.0,19,0.00,,---,0.00,VWS V14.01,2013-10-21 08:46:00,
2013-10-21 01:51:00,50.0,9.4,29.23,SE,136,0.0,0.0,19,0.00,,---,0.00,VWS V14.01,2013-10-21 08:51:00,
2013-10-21 01:56:00,49.1,8.6,29.26,SE,136,0.0,0.0,19,0.00,,---,0.00,VWS V14.01,2013-10-21 08:56:00,
2013-10-21 02:01:00,48.7,8.3,29.26,SE,136,0.0,0.0,19,0.00,,---,0.00,VWS V14.01,2013-10-21 09:01:00,
2013-10-21 02:06:00,49.5,8.9,29.26,SE,136,0.0,0.0,19,0.00,,---,0.00,VWS V14.01,2013-10-21 09:06:00,
2013-10-21 02:11:00,49.6,9.1,29.26,SE,136,0.0,0.0,19,0.00,,---,0.00,VWS V14.01,2013-10-21 09:11:00,
2013-10-21 02:16:00,49.8,9.2,29.26,SE,136,0.0,0.0,19,0.00,,---,0.00,VWS V14.01,2013-10-21 09:16:00,
2013-10-21 02:21:00,48.7,8.3,29.26,SE,136,0.0,0.0,19,0.00,,---,0.00,VWS V14.01,2013-10-21 09:21:00,
2013-10-21 02:26:00,48.7,8.3,29.26,SE,136,0.0,0.0,19,0.00,,---,0.00,VWS V14.01,2013-10-21 09:26:00,
2013-10-21 02:31:00,48.4,8.0,29.26,SE,136,0.0,0.0,19,0.00,,---,0.00,VWS V14.01,2013-10-21 09:31:00,
2013-10-21 02:36:00,48.6,8.2,29.26,SE,136,0.0,0.0,19,0.00,,---,0.00,VWS V14.01,2013-10-21 09:36:00,
2013-10-21 02:41:00,48.0,7.7,29.26,SE,136,0.0,0.0,19,0.00,,---,0.00,VWS V14.01,2013-10-21 09:41:00,
2013-10-21 02:46:00,48.2,7.9,29.26,SE,136,0.0,0.0,19,0.00,,---,0.00,VWS V14.01,2013-10-21 09:46:00,
2013-10-21 02:51:00,48.9,8.5,29.26,SE,136,0.0,0.0,19,0.00,,---,0.00,VWS V14.01,2013-10-21 09:51:00,
2013-10-21 02:56:00,49.5,8.9,29.26,SE,136,0.0,0.0,19,0.00,,---,0.00,VWS V14.01,2013-10-21 09:56:00,
2013-10-21 03:01:00,49.6,9.1,29.26,SE,136,0.0,0.0,19,0.00,,---,0.00,VWS V14.01,2013-10-21 10:01:00,
2013-10-21 03:06:00,49.8,9.2,29.26,SE,136,0.0,0.0,19,0.00,,---,0.00,VWS V14.01,2013-10-21 10:06:00,
2013-10-21 03:11:00,49.6,9.1,29.26,SE,136,0.0,0.0,19,0.00,,---,0.00,VWS V14.01,2013-10-21 10:11:00,
2013-10-21 03:16:00,49.6,9.1,29.26,SE,136,0.0,0.0,19,0.00,,---,0.00,VWS V14.01,2013-10-21 10:16:00,
2013-10-21 03:21:00,48.6,8.2,29.26,SE,136,0.0,0.0,19,0.00,,---,0.00,VWS V14.01,2013-10-21 10:21:00,
2013-10-21 03:26:00,47.7,7.4,29.26,SE,136,0.0,0.0,19,0.00,,---,0.00,VWS V14.01,2013-10-21 10:26:00,
2013-10-21 03:31:00,48.2,7.9,29.26,SE,136,0.0,0.0,19,0.00,,---,0.00,VWS V14.01,2013-10-21 10:31:00,
2013-10-21 03:36:00,48.7,8.3,29.26,SE,136,0.0,0.0,19,0.00,,---,0.00,VWS V14.01,2013-10-21 10:36:00,
2013-10-21 03:41:00,49.1,8.6,29.26,SE,136,0.0,0.0,19,0.00,,---,0.00,VWS V14.01,2013-10-21 10:41:00,
2013-10-21 03:46:00,48.9,8.5,29.26,SE,136,0.0,0.0,19,0.00,,---,0.00,VWS V14.01,2013-10-21 10:46:00,
2013-10-21 03:51:00,48.6,8.2,29.26,SE,136,0.0,0.0,19,0.00,,---,0.00,VWS V14.01,2013-10-21 10:51:00,
2013-10-21 03:56:00,48.4,8.0,29.26,SE,136,0.0,0.0,19,0.00,,---,0.00,VWS V14.01,2013-10-21 10:56:00,
2013-10-21 04:01:00,48.2,7.9,29.26,SE,136,0.0,0.0,19,0.00,,---,0.00,VWS V14.01,2013-10-21 11:01:00,
2013-10-21 04:06:00,48.6,8.2,29.26,SE,136,0.0,0.0,19,0.00,,---,0.00,VWS V14.01,2013-10-21 11:06:00,
2013-10-21 04:11:00,48.9,8.5,29.26,SE,136,0.0,0.0,19,0.00,,---,0.00,VWS V14.01,2013-10-21 11:11:00,
2013-10-21 04:17:00,48.6,8.2,29.26,SE,136,0.0,0.0,19,0.00,,---,0.00,VWS V14.01,2013-10-21 11:17:00,
2013-10-21 04:22:00,48.4,8.0,29.26,SE,136,0.0,0.0,19,0.00,,---,0.00,VWS V14.01,2013-10-21 11:22:00,
2013-10-21 04:27:00,48.7,8.3,29.26,SE,136,0.0,0.0,19,0.00,,---,0.00,VWS V14.01,2013-10-21 11:27:00,
2013-10-21 04:32:00,49.5,8.9,29.26,SE,136,0.0,0.0,19,0.00,,---,0.00,VWS V14.01,2013-10-21 11:32:00,
2013-10-21 04:37:00,49.6,9.1,29.26,SE,136,0.0,0.0,19,0.00,,---,0.00,VWS V14.01,2013-10-21 11:37:00,
2013-10-21 04:42:00,49.5,8.9,29.26,SE,136,0.0,0.0,19,0.00,,---,0.00,VWS V14.01,2013-10-21 11:42:00,
2013-10-21 04:47:00,48.7,8.3,29.26,SE,136,0.0,0.0,19,0.00,,---,0.00,VWS V14.01,2013-10-21 11:47:00,
2013-10-21 04:52:00,48.4,8.0,29.26,SE,136,0.0,0.0,19,0.00,,---,0.00,VWS V14.01,2013-10-21 11:52:00,
2013-10-21 04:57:00,48.2,10.1,29.26,SE,136,0.0,0.0,21,0.00,,---,0.00,VWS V14.01,2013-10-21 11:57:00,
2013-10-21 05:02:00,48.4,10.3,29.26,SE,136,0.0,0.0,21,0.00,,---,0.00,VWS V14.01,2013-10-21 12:02:00,
2013-10-21 05:07:00,47.7,7.4,29.26,SE,136,0.0,0.0,19,0.00,,---,0.00,VWS V14.01,2013-10-21 12:07:00,
2013-10-21 05:12:00,46.8,6.7,29.26,SE,136,0.0,0.0,19,0.00,,---,0.00,VWS V14.01,2013-10-21 12:12:00,
2013-10-21 05:17:00,46.4,9.6,29.26,SE,136,0.0,0.0,22,0.00,,---,0.00,VWS V14.01,2013-10-21 12:17:00,
2013-10-21 05:22:00,46.9,12.1,29.26,SE,136,0.0,0.0,24,0.00,,---,0.00,VWS V14.01,2013-10-21 12:22:00,
2013-10-21 05:27:00,46.6,11.7,29.26,SE,136,0.0,0.0,24,0.00,,---,0.00,VWS V14.01,2013-10-21 12:27:00,
2013-10-21 05:32:00,45.9,9.2,29.26,SE,136,0.0,0.0,22,0.00,,---,0.00,VWS V14.01,2013-10-21 12:32:00,
2013-10-21 05:37:00,45.3,13.3,29.26,SE,136,0.0,0.0,27,0.00,,---,0.00,VWS V14.01,2013-10-21 12:37:00,
2013-10-21 05:42:00,45.9,14.6,29.26,SE,136,0.0,0.0,28,0.00,,---,0.00,VWS V14.01,2013-10-21 12:42:00,
2013-10-21 05:47:00,45.9,15.4,29.26,SE,136,0.0,0.0,29,0.00,,---,0.00,VWS V14.01,2013-10-21 12:47:00,
2013-10-21 05:52:00,46.9,20.0,29.26,SE,136,0.0,0.0,34,0.00,,---,0.00,VWS V14.01,2013-10-21 12:52:00,
2013-10-21 05:57:00,47.8,22.2,29.26,SE,136,0.0,0.0,36,0.00,,---,0.00,VWS V14.01,2013-10-21 12:57:00,
2013-10-21 06:02:00,48.2,21.2,29.26,SE,136,0.0,0.0,34,0.00,,---,0.00,VWS V14.01,2013-10-21 13:02:00,
2013-10-21 06:07:00,47.5,19.8,29.26,SE,136,0.0,0.0,33,0.00,,---,0.00,VWS V14.01,2013-10-21 13:07:00,
2013-10-21 06:12:00,46.6,18.3,29.26,SE,136,0.0,0.0,32,0.00,,---,0.00,VWS V14.01,2013-10-21 13:12:00,
2013-10-21 06:17:00,45.5,16.6,29.26,SE,136,0.0,0.0,31,0.00,,---,0.00,VWS V14.01,2013-10-21 13:17:00,
2013-10-21 06:22:00,45.0,16.9,29.26,SE,136,0.0,0.0,32,0.00,,---,0.00,VWS V14.01,2013-10-21 13:22:00,
2013-10-21 06:27:00,44.6,16.6,29.26,SE,136,0.0,0.0,32,0.00,,---,0.00,VWS V14.01,2013-10-21 13:27:00,
2013-10-21 06:32:00,45.0,20.3,29.26,SE,136,0.0,0.0,37,0.00,,---,0.00,VWS V14.01,2013-10-21 13:32:00,
2013-10-21 06:37:00,45.5,21.4,29.26,SE,136,0.0,0.0,38,0.00,,---,0.00,VWS V14.01,2013-10-21 13:37:00,
2013-10-21 06:42:00,45.9,22.3,29.26,SE,136,0.0,0.0,39,0.00,,---,0.00,VWS V14.01,2013-10-21 13:42:00,
2013-10-21 06:47:00,45.9,22.3,29.26,SE,136,0.0,0.0,39,0.00,,---,0.00,VWS V14.01,2013-10-21 13:47:00,
2013-10-21 06:52:00,46.4,22.8,29.26,SE,136,0.0,0.0,39,0.00,,---,0.00,VWS V14.01,2013-10-21 13:52:00,
2013-10-21 06:57:00,46.6,23.6,29.26,SE,136,0.0,0.0,40,0.00,,---,0.00,VWS V14.01,2013-10-21 13:57:00,
2013-10-21 07:02:00,47.3,23.6,29.26,SE,136,0.0,0.0,39,0.00,,---,0.00,VWS V14.01,2013-10-21 14:02:00,
2013-10-21 07:07:00,47.3,23.0,29.26,SE,136,0.0,0.0,38,0.00,,---,0.00,VWS V14.01,2013-10-21 14:07:00,
2013-10-21 07:12:00,46.4,21.6,29.26,SE,136,0.0,0.0,37,0.00,,---,0.00,VWS V14.01,2013-10-21 14:12:00,
2013-10-21 07:17:00,45.7,20.9,29.26,SE,136,0.0,0.0,37,0.00,,---,0.00,VWS V14.01,2013-10-21 14:17:00,
2013-10-21 07:22:00,45.3,21.8,29.26,SE,136,0.0,0.0,39,0.00,,---,0.00,VWS V14.01,2013-10-21 14:22:00,
2013-10-21 07:27:00,44.4,21.0,29.26,SE,136,0.0,0.0,39,0.00,,---,0.00,VWS V14.01,2013-10-21 14:27:00,
2013-10-21 07:33:00,44.4,21.0,29.26,SE,136,0.0,0.0,39,0.00,,---,0.00,VWS V14.01,2013-10-21 14:33:00,
2013-10-21 07:38:00,44.6,22.4,29.26,SE,136,0.0,0.0,41,0.00,,---,0.00,VWS V14.01,2013-10-21 14:38:00,
2013-10-21 07:43:00,44.6,22.4,29.29,SE,136,0.0,0.0,41,0.00,,---,0.00,VWS V14.01,2013-10-21 14:43:00,
2013-10-21 07:48:00,45.3,23.6,29.29,SE,136,0.0,0.0,42,0.00,,---,0.00,VWS V14.01,2013-10-21 14:48:00,
2013-10-21 07:53:00,46.0,23.7,29.29,SE,136,0.0,0.0,41,0.00,,---,0.00,VWS V14.01,2013-10-21 14:53:00,
2013-10-21 07:58:00,46.6,23.6,29.29,SE,136,0.0,0.0,40,0.00,,---,0.00,VWS V14.01,2013-10-21 14:58:00,
2013-10-21 08:03:00,46.8,23.7,29.29,SE,136,0.0,0.0,40,0.00,,---,0.00,VWS V14.01,2013-10-21 15:03:00,
2013-10-21 08:08:00,47.3,23.0,29.29,SE,136,0.0,0.0,38,0.00,,---,0.00,VWS V14.01,2013-10-21 15:08:00,
2013-10-21 08:13:00,48.2,23.2,29.29,SE,136,0.0,0.0,37,0.00,,---,0.00,VWS V14.01,2013-10-21 15:13:00,
2013-10-21 08:18:00,48.9,23.2,29.29,SE,136,0.0,0.0,36,0.00,,---,0.00,VWS V14.01,2013-10-21 15:18:00,
2013-10-21 08:23:00,49.6,19.5,29.29,SE,136,0.0,0.0,30,0.00,,---,0.00,VWS V14.01,2013-10-21 15:23:00,
2013-10-21 08:28:00,50.7,19.6,29.29,SE,136,0.0,0.0,29,0.00,,---,0.00,VWS V14.01,2013-10-21 15:28:00,
2013-10-21 08:33:00,51.3,19.3,29.29,SE,137,0.0,0.0,28,0.00,,---,0.00,VWS V14.01,2013-10-21 15:33:00,
2013-10-21 08:38:00,52.3,19.4,29.29,SE,138,0.0,0.0,27,0.00,,---,0.00,VWS V14.01,2013-10-21 15:38:00,
2013-10-21 08:43:00,53.2,19.3,29.29,SE,138,0.0,0.0,26,0.00,,---,0.00,VWS V14.01,2013-10-21 15:43:00,
2013-10-21 08:48:00,54.5,20.3,29.29,SE,138,0.0,0.0,26,0.00,,---,0.00,VWS V14.01,2013-10-21 15:48:00,
2013-10-21 08:53:00,54.9,20.6,29.29,SE,139,0.0,0.0,26,0.00,,---,0.00,VWS V14.01,2013-10-21 15:53:00,
2013-10-21 08:58:00,55.9,20.6,29.29,WSW,242,3.1,3.1,25,0.00,,---,0.00,VWS V14.01,2013-10-21 15:58:00,
2013-10-21 09:03:00,56.8,21.4,29.29,WSW,242,0.0,0.0,25,0.00,,---,0.00,VWS V14.01,2013-10-21 16:03:00,
2013-10-21 09:08:00,57.6,22.0,29.29,WSW,241,4.0,4.0,25,0.00,,---,0.00,VWS V14.01,2013-10-21 16:08:00,
2013-10-21 09:13:00,58.3,22.6,29.29,WSW,242,0.0,0.0,25,0.00,,---,0.00,VWS V14.01,2013-10-21 16:13:00,
2013-10-21 09:18:00,58.8,23.1,29.29,WSW,251,0.0,3.6,25,0.00,,---,0.00,VWS V14.01,2013-10-21 16:18:00,
2013-10-21 09:23:00,59.2,22.4,29.29,WSW,250,0.0,0.0,24,0.00,,---,0.00,VWS V14.01,2013-10-21 16:23:00,
2013-10-21 09:28:00,60.1,23.2,29.29,WSW,252,0.0,0.0,24,0.00,,---,0.00,VWS V14.01,2013-10-21 16:28:00,
2013-10-21 09:33:00,60.6,23.6,29.29,WSW,250,0.0,0.0,24,0.00,,---,0.00,VWS V14.01,2013-10-21 16:33:00,
2013-10-21 09:38:00,60.6,23.6,29.29,West,276,2.7,4.9,24,0.00,,---,0.00,VWS V14.01,2013-10-21 16:38:00,
2013-10-21 09:43:00,61.2,24.1,29.29,WNW,282,3.6,3.6,24,0.00,,---,0.00,VWS V14.01,2013-10-21 16:43:00,
2013-10-21 09:48:00,61.3,24.3,29.29,WNW,284,0.0,3.6,24,0.00,,---,0.00,VWS V14.01,2013-10-21 16:48:00,
2013-10-21 09:53:00,61.5,24.4,29.29,West,275,3.1,3.6,24,0.00,,---,0.00,VWS V14.01,2013-10-21 16:53:00,
2013-10-21 09:58:00,62.1,23.9,29.29,West,274,4.9,4.9,23,0.00,,---,0.00,VWS V14.01,2013-10-21 16:58:00,
2013-10-21 10:03:00,62.8,24.5,29.29,WSW,246,3.6,4.0,23,0.00,,---,0.00,VWS V14.01,2013-10-21 17:03:00,
2013-10-21 10:08:00,63.7,25.2,29.29,WSW,249,0.0,0.0,23,0.00,,---,0.00,VWS V14.01,2013-10-21 17:08:00,
2013-10-21 10:13:00,64.4,22.5,29.29,West,262,5.8,5.8,20,0.00,,---,0.00,VWS V14.01,2013-10-21 17:13:00,
2013-10-21 10:18:00,64.8,22.8,29.29,WSW,245,5.4,5.4,20,0.00,,---,0.00,VWS V14.01,2013-10-21 17:18:00,
2013-10-21 10:23:00,65.3,23.2,29.29,West,266,3.1,4.9,20,0.00,,---,0.00,VWS V14.01,2013-10-21 17:23:00,
2013-10-21 10:28:00,65.7,23.5,29.29,SW,233,3.1,3.1,20,0.00,,---,0.00,VWS V14.01,2013-10-21 17:28:00,
2013-10-21 10:33:00,66.4,20.3,29.29,SW,224,0.0,0.0,17,0.00,,---,0.00,VWS V14.01,2013-10-21 17:33:00,
2013-10-21 10:38:00,66.9,20.7,29.29,SW,235,0.0,4.0,17,0.00,,---,0.00,VWS V14.01,2013-10-21 17:38:00,
2013-10-21 10:43:00,66.9,20.7,29.29,WNW,287,3.6,4.0,17,0.00,,---,0.00,VWS V14.01,2013-10-21 17:43:00,
2013-10-21 10:49:00,67.3,21.0,29.29,West,279,4.0,4.0,17,0.00,,---,0.00,VWS V14.01,2013-10-21 17:49:00,
2013-10-21 10:54:00,65.8,19.8,29.29,NNW,337,0.0,0.0,17,0.00,,---,0.00,VWS V14.01,2013-10-21 17:54:00,
2013-10-21 10:59:00,66.7,20.6,29.29,SW,228,0.0,0.0,17,0.00,,---,0.00,VWS V14.01,2013-10-21 17:59:00,
2013-10-21 11:04:00,68.7,22.2,29.29,SW,231,4.5,4.5,17,0.00,,---,0.00,VWS V14.01,2013-10-21 18:04:00,
2013-10-21 11:09:00,69.3,22.6,29.29,SW,226,2.7,2.7,17,0.00,,---,0.00,VWS V14.01,2013-10-21 18:09:00,
2013-10-21 11:14:00,69.3,22.6,29.29,SW,216,3.1,3.1,17,0.00,,---,0.00,VWS V14.01,2013-10-21 18:14:00,
2013-10-21 11:19:00,69.3,18.1,29.29,SSW,204,4.0,4.5,14,0.00,,---,0.00,VWS V14.01,2013-10-21 18:19:00,
2013-10-21 11:24:00,69.1,17.9,29.29,SW,229,3.6,4.0,14,0.00,,---,0.00,VWS V14.01,2013-10-21 18:24:00,
2013-10-21 11:29:00,70.5,19.1,29.29,SW,227,3.6,3.6,14,0.00,,---,0.00,VWS V14.01,2013-10-21 18:29:00,
2013-10-21 11:34:00,70.9,19.4,29.29,WSW,241,0.0,0.0,14,0.00,,---,0.00,VWS V14.01,2013-10-21 18:34:00,
2013-10-21 11:39:00,71.2,19.6,29.29,SW,227,2.7,3.1,14,0.00,,---,0.00,VWS V14.01,2013-10-21 18:39:00,
2013-10-21 11:44:00,72.1,20.4,29.26,SSW,212,4.0,4.0,14,0.00,,---,0.00,VWS V14.01,2013-10-21 18:44:00,
2013-10-21 11:49:00,72.7,20.8,29.26,NW,313,3.6,5.4,14,0.00,,---,0.00,VWS V14.01,2013-10-21 18:49:00,
2013-10-21 11:54:00,73.0,19.3,29.26,SW,235,0.0,0.0,13,0.00,,---,0.00,VWS V14.01,2013-10-21 18:54:00,
2013-10-21 11:59:00,74.3,20.3,29.26,SW,233,4.0,4.5,13,0.00,,---,0.00,VWS V14.01,2013-10-21 18:59:00,
2013-10-21 12:04:00,74.8,20.7,29.26,WSW,240,3.6,3.6,13,0.00,,---,0.00,VWS V14.01,2013-10-21 19:04:00,
2013-10-21 12:09:00,75.6,21.3,29.26,WNW,290,4.0,5.4,13,0.00,,---,0.00,VWS V14.01,2013-10-21 19:09:00,
2013-10-21 12:14:00,74.7,20.6,29.26,NW,321,0.0,0.0,13,0.00,,---,0.00,VWS V14.01,2013-10-21 19:14:00,
2013-10-21 12:19:00,75.7,21.5,29.26,WSW,240,2.7,2.7,13,0.00,,---,0.00,VWS V14.01,2013-10-21 19:19:00,
2013-10-21 12:24:00,76.3,21.9,29.26,SW,229,0.0,0.0,13,0.00,,---,0.00,VWS V14.01,2013-10-21 19:24:00,
2013-10-21 12:29:00,75.9,21.6,29.26,West,276,2.7,4.9,13,0.00,,---,0.00,VWS V14.01,2013-10-21 19:29:00,
2013-10-21 12:34:00,77.0,22.4,29.26,WSW,245,5.8,5.8,13,0.00,,---,0.00,VWS V14.01,2013-10-21 19:34:00,
2013-10-21 12:39:00,77.9,23.1,29.26,West,275,0.0,3.1,13,0.00,,---,0.00,VWS V14.01,2013-10-21 19:39:00,
2013-10-21 12:44:00,77.5,22.9,29.26,WSW,242,7.4,7.4,13,0.00,,---,0.00,VWS V14.01,2013-10-21 19:44:00,
2013-10-21 12:49:00,78.3,21.5,29.26,West,263,4.0,4.0,12,0.00,,---,0.00,VWS V14.01,2013-10-21 19:49:00,
2013-10-21 12:54:00,79.2,22.2,29.26,SW,217,0.0,0.0,12,0.00,,---,0.00,VWS V14.01,2013-10-21 19:54:00,
2013-10-21 12:59:00,78.4,21.7,29.23,NE,38,3.1,3.6,12,0.00,,---,0.00,VWS V14.01,2013-10-21 19:59:00,
2013-10-21 13:04:00,77.9,23.1,29.23,NE,49,6.3,9.2,13,0.00,,---,0.00,VWS V14.01,2013-10-21 20:04:00,
2013-10-21 13:09:00,77.4,22.7,29.23,NE,50,4.9,4.9,13,0.00,,---,0.00,VWS V14.01,2013-10-21 20:09:00,
2013-10-21 13:14:00,77.9,21.2,29.23,NNE,30,0.0,0.0,12,0.00,,---,0.00,VWS V14.01,2013-10-21 20:14:00,
2013-10-21 13:19:00,79.7,22.6,29.23,East,80,4.5,4.5,12,0.00,,---,0.00,VWS V14.01,2013-10-21 20:19:00,
2013-10-21 13:24:00,79.5,22.5,29.23,NNE,33,5.8,6.3,12,0.00,,---,0.00,VWS V14.01,2013-10-21 20:24:00,
2013-10-21 13:29:00,78.1,21.4,29.23,ENE,75,4.0,5.4,12,0.00,,---,0.00,VWS V14.01,2013-10-21 20:29:00,
2013-10-21 13:34:00,79.9,22.8,29.23,ESE,111,0.0,2.7,12,0.00,,---,0.00,VWS V14.01,2013-10-21 20:34:00,
2013-10-21 13:39:00,79.7,22.6,29.23,East,91,0.0,0.0,12,0.00,,---,0.00,VWS V14.01,2013-10-21 20:39:00,
2013-10-21 13:44:00,80.6,23.4,29.23,East,99,4.0,4.9,12,0.00,,---,0.00,VWS V14.01,2013-10-21 20:44:00,
2013-10-21 13:49:00,80.8,23.5,29.23,East,93,4.9,5.8,12,0.00,,---,0.00,VWS V14.01,2013-10-21 20:49:00,
2013-10-21 13:54:00,79.9,22.8,29.23,East,84,3.1,6.7,12,0.00,,---,0.00,VWS V14.01,2013-10-21 20:54:00,
2013-10-21 13:59:00,79.2,22.2,29.21,NNE,27,6.9,6.9,12,0.00,,---,0.00,VWS V14.01,2013-10-21 20:59:00,
2013-10-21 14:04:00,78.6,21.8,29.21,NE,44,3.6,6.3,12,0.00,,---,0.00,VWS V14.01,2013-10-21 21:04:00,
2013-10-21 14:09:00,79.0,22.1,29.21,ENE,64,8.3,9.2,12,0.00,,---,0.00,VWS V14.01,2013-10-21 21:09:00,
2013-10-21 14:14:00,78.3,21.5,29.21,North,351,5.4,8.3,12,0.00,,---,0.00,VWS V14.01,2013-10-21 21:14:00,
2013-10-21 14:19:00,78.4,21.7,29.21,NE,51,7.4,8.7,12,0.00,,---,0.00,VWS V14.01,2013-10-21 21:19:00,
2013-10-21 14:24:00,78.6,21.8,29.21,NNE,18,7.8,7.8,12,0.00,,---,0.00,VWS V14.01,2013-10-21 21:24:00,
2013-10-21 14:29:00,78.8,22.0,29.21,NNE,29,7.8,8.7,12,0.00,,---,0.00,VWS V14.01,2013-10-21 21:29:00,
2013-10-21 14:34:00,79.3,22.4,29.21,NE,36,7.4,7.4,12,0.00,,---,0.00,VWS V14.01,2013-10-21 21:34:00,
2013-10-21 14:39:00,79.7,22.6,29.21,NNE,23,9.2,9.2,12,0.00,,---,0.00,VWS V14.01,2013-10-21 21:39:00,
2013-10-21 14:44:00,79.2,22.2,29.21,NNE,22,5.4,9.2,12,0.00,,---,0.00,VWS V14.01,2013-10-21 21:44:00,
2013-10-21 14:49:00,79.3,22.4,29.21,NNE,20,2.7,5.4,12,0.00,,---,0.00,VWS V14.01,2013-10-21 21:49:00,
2013-10-21 14:54:00,79.7,22.6,29.21,NE,53,2.7,5.4,12,0.00,,---,0.00,VWS V14.01,2013-10-21 21:54:00,
2013-10-21 14:59:00,79.9,22.8,29.21,ESE,102,0.0,5.4,12,0.00,,---,0.00,VWS V14.01,2013-10-21 21:59:00,
2013-10-21 15:04:00,80.6,23.4,29.21,NNE,33,0.0,4.9,12,0.00,,---,0.00,VWS V14.01,2013-10-21 22:04:00,
2013-10-21 15:09:00,81.0,23.6,29.21,ENE,68,6.3,6.3,12,0.00,,---,0.00,VWS V14.01,2013-10-21 22:09:00,
2013-10-21 15:14:00,79.9,22.8,29.21,ENE,69,6.9,8.7,12,0.00,,---,0.00,VWS V14.01,2013-10-21 22:14:00,
2013-10-21 15:19:00,80.2,23.1,29.21,ESE,108,5.4,6.3,12,0.00,,---,0.00,VWS V14.01,2013-10-21 22:19:00,
2013-10-21 15:24:00,80.4,23.2,29.21,NE,56,6.3,7.4,12,0.00,,---,0.00,VWS V14.01,2013-10-21 22:24:00,
2013-10-21 15:29:00,79.5,22.5,29.21,NE,44,7.8,8.3,12,0.00,,---,0.00,VWS V14.01,2013-10-21 22:29:00,
2013-10-21 15:34:00,80.1,22.9,29.21,NE,48,8.7,8.7,12,0.00,,---,0.00,VWS V14.01,2013-10-21 22:34:00,
2013-10-21 15:39:00,79.5,22.5,29.21,NE,55,7.4,7.8,12,0.00,,---,0.00,VWS V14.01,2013-10-21 22:39:00,
2013-10-21 15:44:00,80.1,22.9,29.21,ENE,57,5.8,9.6,12,0.00,,---,0.00,VWS V14.01,2013-10-21 22:44:00,
2013-10-21 15:49:00,80.1,22.9,29.21,East,85,4.5,6.9,12,0.00,,---,0.00,VWS V14.01,2013-10-21 22:49:00,
2013-10-21 15:54:00,80.1,22.9,29.21,NNE,20,5.4,8.3,12,0.00,,---,0.00,VWS V14.01,2013-10-21 22:54:00,
2013-10-21 15:59:00,80.1,22.9,29.21,NE,53,4.9,6.7,12,0.00,,---,0.00,VWS V14.01,2013-10-21 22:59:00,
2013-10-21 16:04:00,79.7,22.6,29.21,NNE,26,6.3,7.8,12,0.00,,---,0.00,VWS V14.01,2013-10-21 23:04:00,
2013-10-21 16:09:00,79.3,22.4,29.21,NNE,17,5.8,7.8,12,0.00,,---,0.00,VWS V14.01,2013-10-21 23:09:00,
2013-10-21 16:14:00,79.3,22.4,29.21,NNE,27,3.6,3.6,12,0.00,,---,0.00,VWS V14.01,2013-10-21 23:14:00,
2013-10-21 16:19:00,79.5,22.5,29.21,NNE,25,7.8,7.8,12,0.00,,---,0.00,VWS V14.01,2013-10-21 23:19:00,
2013-10-21 16:24:00,79.5,22.5,29.21,NE,38,8.3,8.3,12,0.00,,---,0.00,VWS V14.01,2013-10-21 23:24:00,
2013-10-21 16:29:00,79.5,22.5,29.21,East,85,5.8,6.9,12,0.00,,---,0.00,VWS V14.01,2013-10-21 23:29:00,
2013-10-21 16:34:00,79.2,22.2,29.21,ENE,58,6.3,6.9,12,0.00,,---,0.00,VWS V14.01,2013-10-21 23:34:00,
2013-10-21 16:39:00,78.8,22.0,29.21,ENE,68,7.4,8.3,12,0.00,,---,0.00,VWS V14.01,2013-10-21 23:39:00,
2013-10-21 16:44:00,78.6,21.8,29.21,NE,47,7.4,7.4,12,0.00,,---,0.00,VWS V14.01,2013-10-21 23:44:00,
2013-10-21 16:49:00,78.4,21.7,29.21,ENE,58,6.9,6.9,12,0.00,,---,0.00,VWS V14.01,2013-10-21 23:49:00,
2013-10-21 16:54:00,78.4,21.7,29.21,ENE,58,9.2,9.2,12,0.00,,---,0.00,VWS V14.01,2013-10-21 23:54:00,
2013-10-21 16:59:00,78.6,21.8,29.18,NE,49,8.3,8.7,12,0.00,,---,0.00,VWS V14.01,2013-10-21 23:59:00,
2013-10-21 17:04:00,78.1,21.4,29.18,ENE,61,7.4,7.8,12,0.00,,---,0.00,VWS V14.01,2013-10-22 00:04:00,
2013-10-21 17:09:00,77.5,22.9,29.18,ENE,61,6.9,8.3,13,0.00,,---,0.00,VWS V14.01,2013-10-22 00:09:00,
2013-10-21 17:14:00,77.5,22.9,29.18,ENE,62,7.4,8.3,13,0.00,,---,0.00,VWS V14.01,2013-10-22 00:14:00,
2013-10-21 17:19:00,77.0,22.4,29.18,NE,53,8.7,8.7,13,0.00,,---,0.00,VWS V14.01,2013-10-22 00:19:00,
2013-10-21 17:24:00,76.8,22.3,29.18,NE,50,9.2,9.2,13,0.00,,---,0.00,VWS V14.01,2013-10-22 00:24:00,
2013-10-21 17:29:00,76.6,22.1,29.18,NE,54,7.4,7.4,13,0.00,,---,0.00,VWS V14.01,2013-10-22 00:29:00,
2013-10-21 17:34:00,76.3,21.9,29.18,NE,49,6.9,7.4,13,0.00,,---,0.00,VWS V14.01,2013-10-22 00:34:00,
2013-10-21 17:39:00,76.1,21.7,29.18,ENE,57,6.7,7.8,13,0.00,,---,0.00,VWS V14.01,2013-10-22 00:39:00,
2013-10-21 17:45:00,75.7,21.5,29.18,NE,43,6.3,8.3,13,0.00,,---,0.00,VWS V14.01,2013-10-22 00:45:00,
2013-10-21 17:50:00,75.4,21.2,29.18,NE,41,8.7,8.7,13,0.00,,---,0.00,VWS V14.01,2013-10-22 00:50:00,
2013-10-21 17:55:00,74.8,20.7,29.18,NE,48,5.4,6.9,13,0.00,,---,0.00,VWS V14.01,2013-10-22 00:55:00,
2013-10-21 18:01:00,74.5,20.5,29.18,NE,50,8.3,8.3,13,0.00,,---,0.00,VWS V14.01,2013-10-22 01:01:00,
2013-10-21 18:06:00,73.8,19.9,29.18,NE,43,5.8,5.8,13,0.00,,---,0.00,VWS V14.01,2013-10-22 01:06:00,
2013-10-21 18:11:00,72.9,20.9,29.21,NE,50,5.8,5.8,14,0.00,,---,0.00,VWS V14.01,2013-10-22 01:11:00,
2013-10-21 18:16:00,72.3,20.5,29.21,NE,50,5.4,6.7,14,0.00,,---,0.00,VWS V14.01,2013-10-22 01:16:00,
2013-10-21 18:21:00,71.8,20.1,29.21,ENE,58,5.8,5.8,14,0.00,,---,0.00,VWS V14.01,2013-10-22 01:21:00,
2013-10-21 18:26:00,71.1,19.5,29.21,ENE,60,5.8,5.8,14,0.00,,---,0.00,VWS V14.01,2013-10-22 01:26:00,
2013-10-21 18:31:00,70.9,19.4,29.21,NE,51,5.4,5.4,14,0.00,,---,0.00,VWS V14.01,2013-10-22 01:31:00,
2013-10-21 18:36:00,69.6,18.4,29.21,NE,50,0.0,0.0,14,0.00,,---,0.00,VWS V14.01,2013-10-22 01:36:00,
2013-10-21 18:41:00,69.6,18.4,29.21,East,86,0.0,3.6,14,0.00,,---,0.00,VWS V14.01,2013-10-22 01:41:00,
2013-10-21 18:46:00,70.2,18.8,29.21,East,86,2.7,3.1,14,0.00,,---,0.00,VWS V14.01,2013-10-22 01:46:00,
2013-10-21 18:52:00,70.0,18.6,29.21,ESE,115,4.5,4.5,14,0.00,,---,0.00,VWS V14.01,2013-10-22 01:52:00,
2013-10-21 18:55:00,69.6,18.4,29.21,SE,137,4.0,4.0,14,0.00,,---,0.00,VWS V14.01,2013-10-22 01:55:00,
2013-10-21 19:01:00,69.4,18.2,29.21,SE,127,4.0,4.0,14,0.00,,---,0.00,VWS V14.01,2013-10-22 02:01:00,
2013-10-21 19:06:00,68.5,19.1,29.21,SE,127,4.5,4.5,15,0.00,,---,0.00,VWS V14.01,2013-10-22 02:06:00,
2013-10-21 19:11:00,68.2,18.8,29.21,SE,131,4.5,4.5,15,0.00,,---,0.00,VWS V14.01,2013-10-22 02:11:00,
2013-10-21 19:16:00,68.2,18.8,29.21,SE,128,5.8,5.8,15,0.00,,---,0.00,VWS V14.01,2013-10-22 02:16:00,
2013-10-21 19:21:00,67.6,18.4,29.21,SE,127,3.1,4.0,15,0.00,,---,0.00,VWS V14.01,2013-10-22 02:21:00,
2013-10-21 19:26:00,67.3,18.1,29.21,SE,127,4.0,4.5,15,0.00,,---,0.00,VWS V14.01,2013-10-22 02:26:00,
2013-10-21 19:31:00,66.6,17.5,29.21,SE,127,4.5,4.5,15,0.00,,---,0.00,VWS V14.01,2013-10-22 02:31:00,
2013-10-21 19:36:00,66.4,17.4,29.21,SE,128,4.9,4.9,15,0.00,,---,0.00,VWS V14.01,2013-10-22 02:36:00,
2013-10-21 19:41:00,66.6,17.5,29.23,SE,128,3.6,4.5,15,0.00,,---,0.00,VWS V14.01,2013-10-22 02:41:00,
2013-10-21 19:46:00,66.2,17.2,29.23,SE,128,3.6,3.6,15,0.00,,---,0.00,VWS V14.01,2013-10-22 02:46:00,
2013-10-21 19:51:00,65.3,16.5,29.23,SE,128,3.1,3.1,15,0.00,,---,0.00,VWS V14.01,2013-10-22 02:51:00,
2013-10-21 19:56:00,64.6,15.9,29.23,SE,128,4.0,4.5,15,0.00,,---,0.00,VWS V14.01,2013-10-22 02:56:00,
2013-10-21 20:01:00,64.6,15.9,29.23,SE,128,2.7,2.7,15,0.00,,---,0.00,VWS V14.01,2013-10-22 03:01:00,
2013-10-21 20:06:00,64.4,15.8,29.23,SE,128,4.5,4.5,15,0.00,,---,0.00,VWS V14.01,2013-10-22 03:06:00,
2013-10-21 20:11:00,64.2,15.6,29.23,SE,128,2.7,4.5,15,0.00,,---,0.00,VWS V14.01,2013-10-22 03:11:00,
2013-10-21 20:16:00,63.5,15.1,29.23,SE,128,3.6,4.5,15,0.00,,---,0.00,VWS V14.01,2013-10-22 03:16:00,
2013-10-21 20:21:00,63.0,16.1,29.23,SE,128,0.0,0.0,16,0.00,,---,0.00,VWS V14.01,2013-10-22 03:21:00,
2013-10-21 20:26:00,62.4,15.7,29.23,SE,127,0.0,0.0,16,0.00,,---,0.00,VWS V14.01,2013-10-22 03:26:00,
2013-10-21 20:31:00,62.4,15.7,29.23,SE,128,0.0,0.0,16,0.00,,---,0.00,VWS V14.01,2013-10-22 03:31:00,
2013-10-21 20:36:00,62.2,15.5,29.23,SE,127,0.0,0.0,16,0.00,,---,0.00,VWS V14.01,2013-10-22 03:36:00,
2013-10-21 20:41:00,61.5,14.9,29.23,SE,128,0.0,0.0,16,0.00,,---,0.00,VWS V14.01,2013-10-22 03:41:00,
2013-10-21 20:46:00,60.8,14.4,29.23,SE,128,3.1,3.6,16,0.00,,---,0.00,VWS V14.01,2013-10-22 03:46:00,
2013-10-21 20:51:00,60.3,13.9,29.23,SE,127,4.0,4.0,16,0.00,,---,0.00,VWS V14.01,2013-10-22 03:51:00,
2013-10-21 20:56:00,59.9,13.6,29.23,SE,127,3.6,3.6,16,0.00,,---,0.00,VWS V14.01,2013-10-22 03:56:00,
2013-10-21 21:01:00,59.7,14.9,29.23,SE,127,4.0,4.0,17,0.00,,---,0.00,VWS V14.01,2013-10-22 04:01:00,
2013-10-21 21:02:00,59.7,14.9,29.23,SE,127,3.1,3.6,17,0.00,,---,0.00,VWS V14.01,2013-10-22 04:02:00,
2013-10-21 21:03:00,59.9,13.6,29.23,SE,127,3.6,3.6,16,0.00,,---,0.00,VWS V14.01,2013-10-22 04:03:00,
2013-10-21 21:04:00,59.9,13.6,29.23,SE,127,2.7,3.6,16,0.00,,---,0.00,VWS V14.01,2013-10-22 04:04:00,
2013-10-21 21:09:00,60.1,13.8,29.23,SE,127,3.6,3.6,16,0.00,,---,0.00,VWS V14.01,2013-10-22 04:09:00,
2013-10-21 21:10:00,59.9,13.6,29.23,SE,127,3.6,3.6,16,0.00,,---,0.00,VWS V14.01,2013-10-22 04:10:00,
2013-10-21 21:13:00,59.9,13.6,29.26,SE,127,3.6,3.6,16,0.00,,---,0.00,VWS V14.01,2013-10-22 04:13:00,
2013-10-21 21:18:00,60.1,13.8,29.26,SE,127,2.7,2.7,16,0.00,,---,0.00,VWS V14.01,2013-10-22 04:18:00,
2013-10-21 21:23:00,59.9,13.6,29.26,SE,127,2.7,2.7,16,0.00,,---,0.00,VWS V14.01,2013-10-22 04:23:00,
2013-10-21 21:28:00,59.9,15.0,29.26,SE,127,3.1,3.1,17,0.00,,---,0.00,VWS V14.01,2013-10-22 04:28:00,
2013-10-21 21:33:00,59.2,14.4,29.26,SE,127,0.0,0.0,17,0.00,,---,0.00,VWS V14.01,2013-10-22 04:33:00,
2013-10-21 21:38:00,57.9,13.4,29.26,SE,127,0.0,0.0,17,0.00,,---,0.00,VWS V14.01,2013-10-22 04:38:00,
2013-10-21 21:43:00,57.2,12.8,29.26,SE,127,0.0,0.0,17,0.00,,---,0.00,VWS V14.01,2013-10-22 04:43:00,
2013-10-21 21:48:00,56.1,11.9,29.26,SE,127,0.0,0.0,17,0.00,,---,0.00,VWS V14.01,2013-10-22 04:48:00,
2013-10-21 21:53:00,55.8,15.3,29.26,SE,127,0.0,0.0,20,0.00,,---,0.00,VWS V14.01,2013-10-22 04:53:00,
2013-10-21 21:58:00,55.9,15.5,29.26,SE,127,0.0,0.0,20,0.00,,---,0.00,VWS V14.01,2013-10-22 04:58:00,
2013-10-21 22:03:00,55.0,14.7,29.26,SE,127,0.0,0.0,20,0.00,,---,0.00,VWS V14.01,2013-10-22 05:03:00,
2013-10-21 22:08:00,55.0,19.9,29.26,SE,127,0.0,0.0,25,0.00,,---,0.00,VWS V14.01,2013-10-22 05:08:00,
2013-10-21 22:13:00,55.9,20.6,29.26,SE,127,0.0,0.0,25,0.00,,---,0.00,VWS V14.01,2013-10-22 05:13:00,
2013-10-21 22:19:00,56.1,20.8,29.26,SE,127,0.0,0.0,25,0.00,,---,0.00,VWS V14.01,2013-10-22 05:19:00,
2013-10-21 22:24:00,56.5,21.1,29.26,SE,127,0.0,0.0,25,0.00,,---,0.00,VWS V14.01,2013-10-22 05:24:00,
2013-10-21 22:29:00,57.0,20.6,29.26,SE,127,0.0,0.0,24,0.00,,---,0.00,VWS V14.01,2013-10-22 05:29:00,
2013-10-21 22:34:00,57.2,20.8,29.26,SE,127,0.0,0.0,24,0.00,,---,0.00,VWS V14.01,2013-10-22 05:34:00,
2013-10-21 22:39:00,56.8,18.4,29.26,SE,127,0.0,0.0,22,0.00,,---,0.00,VWS V14.01,2013-10-22 05:39:00,
2013-10-21 22:44:00,56.3,20.0,29.26,SE,127,0.0,0.0,24,0.00,,---,0.00,VWS V14.01,2013-10-22 05:44:00,
2013-10-21 22:49:00,56.5,20.1,29.26,SE,127,0.0,0.0,24,0.00,,---,0.00,VWS V14.01,2013-10-22 05:49:00,
2013-10-21 22:54:00,56.7,20.3,29.26,SE,127,0.0,0.0,24,0.00,,---,0.00,VWS V14.01,2013-10-22 05:54:00,
2013-10-21 22:59:00,55.6,17.4,29.29,SE,127,0.0,0.0,22,0.00,,---,0.00,VWS V14.01,2013-10-22 05:59:00,
2013-10-21 23:04:00,53.6,16.7,29.29,SE,127,0.0,0.0,23,0.00,,---,0.00,VWS V14.01,2013-10-22 06:04:00,
2013-10-21 23:09:00,52.7,16.0,29.29,SE,127,0.0,0.0,23,0.00,,---,0.00,VWS V14.01,2013-10-22 06:09:00,
2013-10-21 23:14:00,51.8,15.2,29.29,SE,127,0.0,0.0,23,0.00,,---,0.00,VWS V14.01,2013-10-22 06:14:00,
2013-10-21 23:19:00,51.6,17.9,29.29,SE,127,0.0,0.0,26,0.00,,---,0.00,VWS V14.01,2013-10-22 06:19:00,
2013-10-21 23:24:00,52.3,19.4,29.29,SE,127,0.0,0.0,27,0.00,,---,0.00,VWS V14.01,2013-10-22 06:24:00,
2013-10-21 23:29:00,52.7,19.7,29.29,SE,127,0.0,0.0,27,0.00,,---,0.00,VWS V14.01,2013-10-22 06:29:00,
2013-10-21 23:34:00,53.4,20.3,29.29,SE,127,0.0,0.0,27,0.00,,---,0.00,VWS V14.01,2013-10-22 06:34:00,
2013-10-21 23:39:00,54.3,21.1,29.29,SE,127,0.0,0.0,27,0.00,,---,0.00,VWS V14.01,2013-10-22 06:39:00,
2013-10-21 23:44:00,54.5,20.3,29.29,SE,127,0.0,0.0,26,0.00,,---,0.00,VWS V14.01,2013-10-22 06:44:00,
2013-10-21 23:49:00,54.1,20.0,29.29,SE,127,0.0,0.0,26,0.00,,---,0.00,VWS V14.01,2013-10-22 06:49:00,
2013-10-21 23:54:00,52.5,18.6,29.29,SE,127,0.0,0.0,26,0.00,,---,0.00,VWS V14.01,2013-10-22 06:54:00,
2013-10-21 23:59:00,52.0,18.2,29.29,SE,127,0.0,0.0,26,0.00,,---,0.00,VWS V14.01,2013-10-22 06:59:00,